COSMOS 1275 DEB, 42153

Orbit data source: Space-Track

COSMOS 1275 DEB, 42153 is space debris in LEO originally from a launch on Thu, 04 Jun 1981 UTC launched from the Plesetsk Missile And Space Complex (PKMTR). Debris objects in space refer to the collection of defunct objects orbiting the Earth. Examples of debris include non-operational satellites, rocket bodies, and fragments generated from explosions, collisions, or faulty payload assembly.

Loading next visibility...
Identifier
42153, 1981-053RR
Orbit
LEO
Country
Flag of CISCIS
Related business
Manufacturer
Unknown
Mission
Spacecraft
Bus & Motor
Unknown
Mass
Unknown
Launch date (UTC)
1981-06-04 (45 years ago)
Launch vehicle
Unknown
Launch site
Plesetsk Missile And Space Complex (PKMTR)
Object type
Payload
Rocket body
Debris
Shape & HBR
Unknown shape, 0.1 m
Radar Cross Section
Small (<0.1 m²)

Expand to show TLE details & history
Last TLE update: 6 days ago

TLE from 6 days ago
0 COSMOS 1275 DEB
1 42153U 81053RR  26249.22262146  .00001694  00000-0  79225-3 0  9998
2 42153  82.8335  71.8661 0039188 332.8355  27.0774 14.19398608640795
Epoch: 2026-09-06T05:20Z
TLE epoch observation values (Epoch: 2026-09-06T05:20:34.494Z)
Latitude
-0.00004°
Longitude
6.40154°
Altitude
805.222 km
Speed
7.464 km/s
True Right ascension
04h 47m 27s
True Declination
0° 00' 00"
Sunlit
Object was in daylight at epoch
Visualization orbit readout
Latitude
Unknown
Longitude
Unknown
Altitude
Unknown
Speed
Unknown
Apparent Right ascension
Unknown
Apparent Declination
Unknown
Sunlit
N/A
Visualization observer readout
Local Sidereal Time
04:44:15
Azimuth
Unknown
Elevation
Unknown
Doppler factor
Unknown
Orbital elements
Apogee altitude
852.705 km
Perigee altitude
796.254 km
Semi-major axis
7,202.616 km
Eccentricity
0.00392
Inclination
82.8335°
RAAN
71.8661°
Arg. of periapsis
332.8355°
True anomaly
27.2827°
Mean anomaly
27.0774°
Eccentric anomaly
27.17996°
Mean motion
3.55065 °/min
Orbital period
101.39 mins
BSTAR
0.00079225
Loading maneuver chart data...
Computing Atmospheric mass density...
Loading historical data...
Loading historical data...
Loading historical data...
Loading historical data...
Loading historical data...
Loading historical data...
Loading historical data...

Documentation

Showing up to 5 results
|